Location: ???????
(55.2975°N, 38.1367°E)
Time: 05:55:23
(UTC+00:00)

Daily predictions for brighter satellites

Satellite Brightness Start Highest point End
(mag) Time Altitude Azimuth Time Altitude Azimuth Time Altitude Azimuth
Cosmos 2369 Rocket 4.2 00:17:55 24° NE 00:17:55 24° NE 00:21:54 10° E
ADEOS Rocket 4.0 00:15:33 10° NNE 00:21:56 49° E 00:21:56 49° E
ADEOS II 4.4 00:17:45 10° NNE 00:19:01 18° NNE 00:19:01 18° NNE
Cosmos 2360 Rocket 4.1 00:29:09 23° NNE 00:29:09 23° NNE 00:31:17 10° NNE
Cosmos 2322 Rocket 4.1 00:34:12 24° NNE 00:34:12 24° NNE 00:36:26 10° NNE
Cosmos 2333 Rocket 4.1 00:35:28 24° NNE 00:35:28 24° NNE 00:37:49 10° NNE
SJ 16-02 4.3 00:38:25 11° E 00:38:25 11° E 00:38:42 10° ESE
USA 234 3.9 00:30:32 10° ESE 00:35:06 49° ESE 00:35:06 49° ESE
CZ-2D R/B 4.3 00:35:36 10° NNE 00:36:47 17° NNE 00:36:47 17° NNE
ACS3 Solar Sail 2.7 00:35:36 10° NNE 00:39:55 44° NE 00:39:55 44° NE
SL-16 R/B 4.1 00:44:51 22° NNE 00:44:51 22° NNE 00:47:06 10° NNE
COSMOS 2455 4.1 00:46:06 34° NNE 00:46:06 34° NNE 00:49:36 10° NE
Resurs 1-4 Rocket 4.3 00:47:58 10° NNE 00:49:16 18° N 00:49:16 18° N
Cosmos 1725 Rocket 4.5 00:52:25 10° N 00:58:42 58° ENE 01:04:55 10° SSE
Cosmos 2219 Rocket 3.5 01:03:00 33° NNE 01:03:00 33° NNE 01:06:12 10° NNE
NOSS 3-1 (C) 4.0 01:03:05 48° ENE 01:03:05 48° ENE 01:07:37 10° NE
Cosmos 1727 Rocket 4.3 01:07:36 58° NNE 01:07:36 58° NNE 01:12:34 10° NNE
Lacrosse 4 Rocket 4.0 01:11:04 15° NE 01:11:04 15° NE 01:12:33 10° ENE
NOSS 3-2 (C) 4.3 01:11:41 42° N 01:12:12 43° N 01:19:22 10° ENE
Lacrosse 5 rocket 4.2 01:16:10 12° E 01:16:10 12° E 01:16:30 10° E
H-2A R/B 3.6 01:14:37 10° NNE 01:16:39 25° NNE 01:16:39 25° NNE
Cosmos 1802 Rocket 4.2 01:13:41 10° N 01:21:19 61° SSE 01:26:23 10° SSE
NOSS 0 Rocket 4.2 01:20:16 59° SE 01:20:52 62° ESE 01:26:58 10° NE
Cosmos 1000 Rocket 4.4 01:28:39 84° S 01:28:53 89° ESE 01:35:17 10° NNE
NOSS 3-2 (A) 4.3 01:31:49 43° NNW 01:33:44 54° NNE 01:41:37 10° E
COSMOS 2428 2.7 01:39:07 69° N 01:39:07 69° N 01:44:14 10° NNE
Cosmos 1980 Rocket 4.1 01:38:37 17° N 01:39:00 17° N 01:42:35 10° NE
Meteor 2-5 Rocket 3.9 01:37:02 41° S 01:39:10 73° E 01:44:56 10° NNE
Cosmos 2322 3.9 01:40:27 60° N 01:40:27 60° N 01:45:19 10° NNE
USA 267 4.3 01:34:30 10° ENE 01:40:34 39° SE 01:44:05 23° SSW
CZ-2C R/B 2.8 01:36:03 10° NNE 01:41:05 66° ESE 01:42:21 48° SSE
Cosmos 1980 4.0 01:40:45 50° S 01:42:01 65° ESE 01:47:39 10° NE
Cosmos 2123 Rocket 3.9 01:39:50 32° S 01:42:55 82° E 01:49:09 10° NNE
Cosmos 2016 Rocket 3.9 01:37:28 10° NNW 01:43:53 82° W 01:50:14 10° S
Cosmos 1939 Rocket 4.0 01:46:58 10° NNE 01:50:38 41° E 01:51:20 37° SE
NOSS 3-1 (A) 3.1 01:50:03 62° S 01:50:42 70° SE 01:56:45 10° NE
Meteor 2-21 4.2 01:50:58 70° W 01:51:05 70° WNW 01:57:09 10° N
Cosmos 2084 4.4 01:52:25 39° NE 01:52:25 39° NE 01:55:52 10° E
Cosmos 1190 Rocket 4.3 01:54:11 53° S 01:54:11 53° S 01:58:14 10° SSE
Cosmos 676 Rocket 3.9 01:54:26 61° NNW 01:55:22 82° ENE 02:00:35 10° SSE
Cosmos 2297 4.1 01:54:05 33° NNW 01:56:34 62° NE 02:02:08 10° SE
CENTAUR R/B 3.2 01:52:52 38° NW 01:56:34 84° NE 02:05:50 10° SE
Cosmos 2237 Rocket 2.3 01:55:42 45° SSW 01:57:30 76° ESE 02:03:10 10° NE
ARGOS 3.0 01:52:05 10° NNE 01:57:34 85° WNW 01:58:54 53° SSW
ADEOS II 3.7 01:57:43 10° N 01:59:50 21° NNW 01:59:50 21° NNW
Cosmos 2369 Rocket 2.4 01:59:43 33° NNW 02:02:20 68° NE 02:08:00 10° SE
USA 238 DEB 4.4 02:03:31 35° NW 02:05:40 44° N 02:12:44 10° ENE
USA 238 4.4 02:03:37 35° NW 02:05:46 44° N 02:12:51 10° ENE
Cosmos 1954 Rocket 3.8 02:07:31 67° WSW 02:07:31 67° WSW 02:12:31 10° SSE
ADEOS Rocket 3.5 02:01:14 10° N 02:07:38 50° WNW 02:08:51 46° W
Cosmos 2360 Rocket 3.5 02:10:54 24° NNW 02:10:54 24° NNW 02:15:14 10° NNE
Meteor 2-16 Rocket 4.3 02:05:47 11° SSW 02:11:38 78° WNW 02:17:49 10° N
SJ 16-02 2.0 02:15:02 41° S 02:15:02 41° S 02:17:56 10° SSE
Cosmos 2322 Rocket 3.6 02:15:59 22° NNW 02:16:02 22° NNW 02:20:29 10° NNE
IRS-1D 4.4 02:11:27 10° NNE 02:16:16 47° E 02:21:00 10° S
Cosmos 2333 Rocket 3.7 02:17:29 22° NNW 02:17:50 22° NNW 02:22:14 10° NNE
SKYMED 2 3.6 02:13:37 10° SSE 02:17:58 76° ENE 02:21:03 19° N
CZ-2D R/B 4.0 02:16:27 10° N 02:18:02 16° NNW 02:18:02 16° NNW
USA 234 3.5 02:14:09 10° SE 02:20:31 51° SW 02:22:27 40° W
NOSS 2-2 (E) 3.9 02:23:27 41° N 02:23:56 44° NNE 02:28:01 10° ESE
ACS3 Solar Sail 2.3 02:18:54 10° N 02:24:02 36° NW 02:24:02 36° NW
SeaSat 1 4.1 02:21:13 10° NNE 02:24:16 18° NNW 02:24:16 18° NNW
COSMO-SKYMED 1 2.8 02:20:53 10° SSE 02:24:58 65° ENE 02:28:38 13° N
USA 59 Rocket 1.0 02:28:26 22° NNE 02:28:26 22° NNE 02:29:53 10° NE
SL-16 R/B 3.9 02:26:41 18° NNW 02:27:35 18° NNW 02:31:28 10° NNE
Cosmos 968 Rocket 3.5 02:25:09 22° NNW 02:28:38 80° ENE 02:33:53 10° SSE
COSMOS 2455 3.9 02:29:14 26° NW 02:30:47 29° NNW 02:36:00 10° NE
Cosmos 1741 Rocket 4.3 02:26:44 17° NNW 02:30:54 67° ENE 02:36:12 10° SE
Resurs 1-4 Rocket 4.0 02:28:53 10° N 02:30:19 14° NNW 02:30:19 14° NNW
Cosmos 371 Rocket 3.4 02:32:57 49° W 02:33:22 50° WSW 02:38:02 10° S
Cosmos 2061 Rocket 4.0 02:29:25 10° NNW 02:35:28 56° W 02:41:29 10° SSW
Cosmos 1891 Rocket 4.5 02:29:35 10° NNW 02:36:01 89° E 02:42:16 10° S
CZ-4 R/B 4.3 02:33:26 10° NNE 02:38:18 64° ESE 02:43:02 10° S
Aureole 3 Rocket 3.6 02:35:08 10° NNW 02:39:53 80° W 02:46:32 10° S
Cosmos 2292 Rocket 4.3 02:35:23 14° SSW 02:40:02 58° WNW 02:46:40 10° N
Cosmos 1656 Rocket 3.9 02:38:46 36° WNW 02:40:27 46° WSW 02:45:50 10° S
Cosmos 304 Rocket 4.1 02:41:42 41° W 02:41:56 42° WSW 02:46:24 10° S
Gbstr 26 Del rocket 3.8 02:39:59 36° WSW 02:41:57 61° S 02:47:58 10° ESE
Meteor 1-24 Rocket 4.0 02:41:06 36° W 02:42:25 41° WNW 02:47:35 10° N
Cosmos 2219 Rocket 3.5 02:44:42 22° NW 02:45:37 23° NNW 02:50:07 10° NNE
Cosmos 2233 Rocket 4.2 02:40:24 10° NNW 02:46:20 44° W 02:52:12 10° SSW
Cosmos 1400 Rocket 2.6 02:44:17 19° NNW 02:46:55 83° ENE 02:50:35 10° SSE
Lacrosse 4 Rocket 2.3 02:46:35 22° NNW 02:48:47 42° NE 02:52:32 10° ESE
Cosmos 2151 Rocket 3.7 02:44:51 10° N 02:49:23 79° ENE 02:53:52 10° SSE
Cosmos 1484 Rocket 4.5 02:46:56 10° NNE 02:50:10 32° E 02:53:22 10° SSE
Lacrosse 5 rocket 0.7 02:49:50 60° WSW 02:50:15 70° SSW 02:53:34 10° ESE
In-Cosmos 22 Rocket 4.4 02:45:25 10° S 02:51:15 80° E 02:57:03 10° NNE
USA 306 3.5 02:50:32 27° SSW 02:51:49 39° SSE 02:55:26 10° E
NOSS 3-1 (C) 3.7 02:50:25 31° WNW 02:52:40 48° NNW 02:59:06 10° NE
NOSS 2-2 (C) 3.2 02:53:25 41° WNW 02:54:39 74° SW 02:59:23 10° SE
Sich 1 Rocket 4.0 02:51:53 10° N 02:56:26 64° ENE 03:00:54 10° SSE
Cosmos 1447 Rocket 4.4 02:50:11 10° SSW 02:56:28 77° WNW 03:02:51 10° N
H-2A R/B 3.5 02:54:53 10° N 02:57:08 17° NW 02:57:08 17° NW
Cosmos 1464 Rocket 4.0 02:52:07 10° N 02:58:19 85° ENE 03:04:28 10° SSE
H-2A R/B 3.8 02:55:39 10° N 02:58:58 35° WNW 02:58:58 35° WNW
SL-16 R/B 2.5 02:55:08 10° SSW 03:00:47 71° ESE 03:06:29 10° NE
PAYLOAD A 4.4 02:55:50 10° N 03:00:54 42° WNW 03:05:41 11° SW
SWARM C 4.4 02:58:25 10° S 03:01:44 88° W 03:05:05 10° N
SWARM A 4.3 02:58:32 10° S 03:01:51 79° E 03:05:11 10° N
Cosmos 1624 Rocket 3.9 02:56:54 10° SSW 03:02:05 81° WNW 03:07:19 10° NNE
Cosmos 1420 Rocket 4.1 02:57:42 14° SW 03:02:06 56° NW 03:07:21 10° NNE
Cosmos 332 Rocket 3.7 02:58:13 15° NNW 03:02:11 82° WSW 03:06:57 10° SSE
NOSS 3-2 (C) 4.1 02:59:05 19° NW 03:04:07 66° NNE 03:12:20 10° ESE
SL-08 RB Rocket 4.3 03:00:35 10° N 03:04:40 33° WNW 03:06:14 26° W
Helios 1A Rocket 2.8 03:01:57 10° S 03:05:07 38° W 03:05:20 38° W
Cosmos 1378 Rocket 3.5 03:00:52 10° S 03:05:08 83° E 03:09:27 10° NNE
Cosmos 2242 Rocket 3.5 03:02:26 10° SSW 03:06:49 67° WNW 03:11:16 10° N
Okean 1 Rocket 3.1 03:03:08 10° N 03:07:30 78° ENE 03:11:48 10° SSE
NOSS 0 Rocket 4.3 03:04:17 23° W 03:07:38 42° NW 03:13:31 10° NNE
Cosmos 2346 Rocket 4.4 03:03:06 10° SSW 03:09:09 62° WNW 03:15:12 10° N
Cosmos 2034 Rocket 4.3 03:03:19 10° N 03:09:41 74° ENE 03:16:04 10° SSE
Cosmos 1812 3.9 03:14:35 17° SW 03:14:35 17° SW 03:15:32 10° SSW
Meteor 2-1 Rocket 4.4 03:07:16 10° NNW 03:13:15 83° ENE 03:19:05 10° SSE
NOSS 2-1 (E) 4.0 03:16:18 23° NNW 03:16:46 24° NNW 03:19:21 10° NE
NOSS 2-2 (D) 3.2 03:14:49 26° NW 03:16:49 82° SW 03:21:29 10° SE
CZ-2C R/B 3.4 03:14:35 10° N 03:18:48 28° WNW 03:21:33 18° WSW
Cosmos 1850 Rocket 4.0 03:14:13 12° NW 03:18:50 58° WSW 03:23:53 10° S
PKM 4.2 03:19:13 20° WNW 03:22:50 60° SSW 03:25:43 10° SE
COSMOS 2428 3.8 03:21:07 20° WNW 03:23:39 27° NNW 03:28:26 10° NNE
USA 267 3.4 03:17:35 10° ENE 03:24:11 80° SSE 03:30:44 10° WSW
Cosmos 1939 Rocket 3.7 03:21:13 10° N 03:24:27 26° WNW 03:26:12 19° WSW
NOSS 3-2 (A) 4.0 03:19:10 16° NW 03:25:04 75° SW 03:33:34 10° SE
Cosmos 1980 Rocket 4.0 03:20:58 10° NNW 03:25:12 21° NNE 03:29:23 10° ENE
Cosmos 1980 4.3 03:22:38 17° W 03:26:28 37° NW 03:31:44 10° NNE
USA 229 DEB 4.0 03:20:44 10° SSW 03:26:41 65° SE 03:33:28 10° NE
USA 229 4.0 03:20:56 10° SSW 03:26:53 64° SE 03:33:40 10° NE
IGS 5A 4.0 03:24:02 10° NNE 03:28:01 58° E 03:31:59 10° S
Cosmos 1072 Rocket 4.5 03:24:09 10° NNW 03:30:08 58° W 03:36:09 10° S
Cosmos 2084 3.4 03:28:09 20° WNW 03:30:51 61° SW 03:34:48 10° SE
Cosmos 1331 Rocket 4.2 03:27:06 10° SSW 03:32:20 75° ESE 03:37:34 10° NNE
Meteor 1-11 4.3 03:29:09 10° SSW 03:35:01 90° E 03:40:54 10° NNE
ARGOS 4.3 03:33:07 10° N 03:37:08 22° NW 03:40:21 13° W
Cosmos 1356 Rocket 4.4 03:33:16 10° N 03:37:13 46° ENE 03:41:10 10° SE
Cosmos 2297 4.4 03:36:01 13° NW 03:40:26 33° WSW 03:45:23 10° S
CBERS-1 4.2 03:35:51 10° NNE 03:41:00 76° ESE 03:46:08 10° SSW
NOSS 3-1 (A) 3.7 03:37:27 15° W 03:41:49 48° NNW 03:48:17 10° NE
Cosmos 2237 Rocket 2.9 03:37:34 13° W 03:42:05 33° NW 03:47:11 10° NNE
SMAP 4.1 03:37:39 10° NNE 03:42:14 51° E 03:46:45 10° S
Cosmos 1441 Rocket 4.2 03:40:18 10° S 03:43:29 43° E 03:46:42 10° NNE
Okean 2 Rocket 3.4 03:40:44 10° NNW 03:44:51 42° W 03:48:59 10° SSW
Cosmos 2369 Rocket 3.1 03:41:31 12° NW 03:45:58 30° WSW 03:50:50 10° SSW
CENTAUR R/B 3.8 03:40:00 12° NW 03:47:04 43° WSW 03:55:37 10° S
ATLAS 3B R/B 3.2 03:40:35 10° SW 03:48:15 83° SE 03:56:13 10° NE
NOSS 2-1 (D) 4.4 03:49:19 13° NW 03:50:57 19° N 03:53:17 10° NE
Cosmos 2056 Rocket 4.0 03:45:59 10° WSW 03:51:05 41° NW 03:56:11 10° NNE
Cosmos 1943 3.6 03:46:13 10° SSW 03:51:46 67° ESE 03:57:22 10° NE
NOSS 2-1 (C) 4.4 03:52:10 13° NW 03:53:55 19° N 03:56:14 10° NE
IRS-1D 4.0 03:50:51 10° N 03:55:18 34° WNW 03:59:43 10° WSW
Orbus 7S? 2.7 03:51:37 10° WSW 03:55:34 83° NNW 03:58:13 10° ENE
Cosmos 2360 Rocket 4.0 03:53:12 10° NW 03:56:43 16° N 04:00:14 10° NE
USA 238 DEB 4.2 03:50:56 10° NW 03:57:47 60° NNE 04:05:28 10° ESE
USA 238 4.2 03:51:02 10° NW 03:57:54 60° NNE 04:05:34 10° ESE
Cosmos 1315 Rocket 3.0 03:54:23 10° N 03:58:15 72° ENE 04:02:05 10° SSE
COSMO-SKYMED 1 3.9 03:57:49 10° SW 04:00:43 18° W 04:03:39 10° NW
Iridium 45 4.3 03:57:49 10° NNW 04:00:58 57° W 04:04:05 10° S
Cosmos 2228 3.3 03:57:09 10° N 04:01:24 71° ENE 04:05:38 10° SSE
Cosmos 292 Rocket 4.0 03:57:26 10° NW 04:02:07 52° WSW 04:06:44 10° S
Cosmos 2322 Rocket 4.1 03:58:38 10° NW 04:02:14 17° N 04:05:50 10° NE
NOSS 2-3 (C) 4.4 03:58:40 10° NW 04:03:06 59° NNE 04:09:09 10° ESE
Cosmos 2333 Rocket 4.0 04:00:29 10° NW 04:04:19 18° N 04:08:09 10° NE
ACS3 Solar Sail 3.5 04:04:07 10° NNW 04:05:42 11° NW 04:07:18 10° NW
Cosmos 1025 Rocket 3.3 04:06:03 10° SSW 04:10:16 47° WNW 04:14:31 10° N
NOSS 2-3 (E) 4.3 04:06:03 10° NW 04:10:40 69° NE 04:16:50 10° ESE
Cosmos 1461 3.9 04:07:38 10° NW 04:11:19 34° NNE 04:14:56 10° E
NOSS 2-2 (E) 4.1 04:09:54 10° WNW 04:13:23 40° SW 04:17:58 10° SSE
SL-16 R/B 4.0 04:10:04 10° NNW 04:13:55 18° NNE 04:17:46 10° NE
MOS 1 Rocket 4.4 04:09:15 10° NNE 04:14:03 55° E 04:19:05 10° S
Cosmos 1674 Rocket 4.2 04:11:10 10° SW 04:15:13 34° WNW 04:19:17 10° N
USA 59 Rocket 1.0 04:14:30 10° NW 04:16:42 19° N 04:19:03 10° NE
COSMOS 2455 4.1 04:13:11 10° NW 04:18:26 29° NNE 04:23:39 10° ENE
Cosmos 1697 Rocket 3.6 04:13:51 10° NNW 04:19:16 45° NE 04:24:40 10° ESE
USA 306 2.8 04:16:44 10° WSW 04:20:16 72° S 04:24:17 10° E
Tsikada Rocket 4.1 04:16:24 10° SSW 04:22:45 80° W 04:29:14 10° N
